{"data":{"norad_id":56512,"epoch":"2026-09-20T22:29:35.510784Z","epoch_age_seconds":77025,"freshness":"FRESH","line1":"1 56512U 23065K   26263.93721656  .00000013  00000+0  99890-5 0  9996","line2":"2 56512  43.0015 189.5375 0001327 263.0788  96.9913 15.27577012186468","mean_motion":15.27577012,"eccentricity":0.0001327,"inclination_deg":43.0015,"raan_deg":189.5375,"arg_perigee_deg":263.0788,"mean_anomaly_deg":96.9913,"bstar":9.989e-6,"rev_number":18646,"period_min":94.266933103076,"perigee_km":482.14756261893,"apogee_km":483.9685237834,"semimajor_km":6861.1950432012,"source":"CELESTRAK","updated_at":"2026-09-21T09:00:33.470781Z"}}